Flag for Ukraine Weather past 2 weeks in Luhansk, Ukraine

Now
79 °F

Passing clouds.


Feels Like: 79 °F
Forecast: 63 / 82 °F
Wind: 20 mph from East

Location: Rostov-Na-Donu

Current Time: May 24, 2015 at 2:26:14 PM

Latest Report: May 24, 2015 at 1:00 PM


Visibility: N/A

Pressure: 29.92 "Hg

Humidity: 30%

Dew point: 45 °F

Location of LuhanskLocation

Historic Weather in Luhansk — Graph

°F

Luhansk temperature yesterday

Maximum temperature yesterday: 81 °F (at 3:00 PM)
Minimum temperature yesterday: 55 °F (at 4:30 AM)
Average temperature yesterday: 67 °F

Past Weeks' High & Low Weather Summary

 TemperatureHumidityPressure
High81 °F (May 22, 3:00 PM)100% (May 11, 6:30 AM)30.12 "Hg (May 11, 6:30 AM)
Low48 °F (May 11, 4:00 AM)24% (May 23, 4:00 PM)29.77 "Hg (May 9, 1:00 PM)
Average60 °F62%29.97 "Hg
* Reported May 9 1:00 PM — May 24 1:00 PM, Luhansk, Weather by CustomWeather, © 2015

Note: Actual official high and low records may vary slightly from our data, if they occured in-between our weather recording intervals... More about our weather records

Advertising

Luhansk weather history for previous 24 hours

 ConditionsComfort  
Time TempWeatherWind HumidityBarometerVisibility
1:00 PM
Sun, May 24
79 °FPassing clouds.20 mph30%29.92 "HgN/A
12:00 PM77 °FSunny.17 mph32%29.92 "Hg10 mi
11:00 AM75 °FSunny.20 mph34%29.95 "Hg10 mi
10:00 AM72 °FSunny.17 mph38%29.95 "Hg10 mi
9:00 AM68 °FSunny.13 mph46%29.95 "Hg10 mi
8:30 AM66 °FSunny.13 mph46%29.95 "Hg10 mi
8:00 AM64 °FSunny.10 mph49%29.95 "Hg10 mi
7:30 AM63 °FPassing clouds.13 mph45%29.95 "HgN/A
7:00 AM61 °FSunny.13 mph48%29.95 "Hg10 mi
6:30 AM59 °FSunny.13 mph51%29.95 "Hg10 mi
5:30 AM57 °FClear.13 mph55%29.95 "Hg10 mi
5:00 AM57 °FClear.10 mph59%29.95 "Hg10 mi
4:30 AM55 °FClear.10 mph63%29.95 "HgN/A
4:00 AM57 °FClear.10 mph59%29.95 "HgN/A
3:30 AM57 °FClear.10 mph59%29.95 "HgN/A
3:00 AM59 °FClear.8 mph51%29.95 "HgN/A
2:30 AM59 °FClear.8 mph51%29.98 "HgN/A
2:00 AM59 °FClear.8 mph55%29.98 "HgN/A
1:30 AM59 °FClear.8 mph55%29.98 "HgN/A
1:00 AM59 °FClear.6 mph55%29.98 "HgN/A
12:00 AM63 °FClear.8 mph56%29.98 "HgN/A
11:30 PM
Sat, May 23
64 °FClear.8 mph49%29.98 "HgN/A
11:00 PM66 °FClear.10 mph46%29.98 "HgN/A
10:30 PM68 °FClear.10 mph43%29.98 "HgN/A
10:00 PM70 °FClear.10 mph38%29.95 "HgN/A
9:30 PM70 °FClear.10 mph40%29.95 "HgN/A
9:00 PM70 °FClear.10 mph40%29.95 "HgN/A
8:30 PM68 °FClear.6 mph46%29.95 "HgN/A
8:00 PM70 °FClear.8 mph43%29.95 "HgN/A
7:00 PM75 °FSunny.8 mph36%29.95 "Hg10 mi
6:00 PM79 °FSunny.15 mph30%29.95 "Hg10 mi
5:00 PM81 °FSunny.17 mph28%29.95 "Hg10 mi
4:00 PM81 °FSunny.20 mph24%29.98 "Hg10 mi
3:00 PM81 °FSunny.17 mph28%29.98 "Hg10 mi
2:00 PM79 °FSunny.24 mph28%30.01 "Hg10 mi
Weather by CustomWeather, © 2015

See weather overviewHow to use our weather pages